FDX9102 KMEM-CYOW

Flight info

Callsign FDX9102
Flight time N/A
Altitude 39000
Route CRSON7 HUMMS DCT PXV DCT VHP DCT MZZ DCT FWA DCT SVM Q951 SIKBO Q905 BOMET DCT MIVOK CAPTL5
Aircraft B752/M-SDE3FGHIM3RWXY/LB1

Departure

Time 2026-05-04 22:08
Airport Memphis International Airport (KMEM)

Arrival

Time N/A
Airport Ottawa Macdonald-Cartier International Airport (CYOW)
Time Latitude Longitude Altitude Speed Heading
2026-05-04 21:38 35.06423 -89.98022 258 ft 0 kts
2026-05-04 21:56 35.06420 -89.98023 258 ft 2 kts
2026-05-04 21:56 35.06405 -89.98023 258 ft 2 kts
2026-05-04 21:56 35.06390 -89.98024 258 ft 2 kts
2026-05-04 21:57 35.06375 -89.98025 258 ft 2 kts 18°
2026-05-04 21:57 35.06362 -89.98035 258 ft 2 kts 47°
2026-05-04 21:57 35.06354 -89.98050 258 ft 2 kts 75°
2026-05-04 21:57 35.06354 -89.98064 258 ft 1 kts 94°
2026-05-04 21:58 35.06354 -89.98067 258 ft 0 kts 92°
2026-05-04 22:01 35.06354 -89.98060 258 ft 3 kts 92°
2026-05-04 22:01 35.06353 -89.98033 258 ft 3 kts 92°
2026-05-04 22:01 35.06351 -89.97991 258 ft 6 kts 92°
2026-05-04 22:01 35.06349 -89.97915 259 ft 7 kts 92°
2026-05-04 22:02 35.06348 -89.97873 259 ft 7 kts 92°
2026-05-04 22:02 35.06340 -89.97812 260 ft 6 kts 120°
2026-05-04 22:02 35.06319 -89.97791 261 ft 4 kts 157°
2026-05-04 22:02 35.06277 -89.97784 261 ft 7 kts 179°
2026-05-04 22:03 35.06219 -89.97784 261 ft 11 kts 180°
2026-05-04 22:03 35.06108 -89.97783 262 ft 18 kts 179°
2026-05-04 22:03 35.05981 -89.97783 264 ft 17 kts 179°
2026-05-04 22:03 35.05861 -89.97782 266 ft 16 kts 180°
2026-05-04 22:04 35.05750 -89.97782 268 ft 15 kts 180°
2026-05-04 22:04 35.05651 -89.97782 270 ft 13 kts 180°
2026-05-04 22:04 35.05565 -89.97783 272 ft 11 kts 180°
2026-05-04 22:04 35.05494 -89.97782 274 ft 9 kts 175°
2026-05-04 22:05 35.05452 -89.97755 275 ft 0 kts 115°
2026-05-04 22:06 35.05451 -89.97751 275 ft 3 kts 113°
2026-05-04 22:07 35.05441 -89.97676 275 ft 11 kts 98°
2026-05-04 22:07 35.05397 -89.97618 276 ft 8 kts 168°
2026-05-04 22:07 35.05325 -89.97613 278 ft 22 kts 179°
2026-05-04 22:07 35.04869 -89.97608 288 ft 111 kts 179°
2026-05-04 22:08 35.03838 -89.97556 524 ft 174 kts 179°
2026-05-04 22:08 35.02599 -89.97439 1445 ft 190 kts 177°
2026-05-04 22:08 35.01217 -89.97283 2067 ft 215 kts 178°
2026-05-04 22:08 34.99649 -89.97109 2738 ft 238 kts 178°
2026-05-04 22:09 34.97968 -89.96828 3580 ft 256 kts 167°
2026-05-04 22:09 34.96272 -89.96073 4581 ft 265 kts 163°
2026-05-04 22:09 34.94633 -89.95063 5652 ft 275 kts 143°
2026-05-04 22:09 34.93485 -89.93140 6583 ft 293 kts 115°
2026-05-04 22:10 34.93054 -89.90713 7598 ft 303 kts 99°
2026-05-04 22:10 34.92859 -89.88171 8651 ft 306 kts 97°
2026-05-04 22:10 34.92723 -89.85612 9597 ft 313 kts 90°
2026-05-04 22:10 34.93176 -89.82981 10431 ft 324 kts 66°
2026-05-04 22:11 34.94257 -89.80549 11069 ft 339 kts 58°
2026-05-04 22:11 34.95748 -89.78244 11728 ft 351 kts 40°
2026-05-04 22:11 34.97757 -89.76542 12284 ft 363 kts 23°
2026-05-04 22:11 35.00162 -89.75492 12978 ft 369 kts
2026-05-04 22:12 35.02731 -89.75170 13409 ft 382 kts 354°
2026-05-04 22:12 35.05434 -89.75424 14184 ft 387 kts 353°
2026-05-04 22:12 35.09016 -89.75666 15370 ft 392 kts 354°
2026-05-04 22:12 35.10827 -89.75774 15980 ft 393 kts 354°
2026-05-04 22:13 35.13549 -89.75941 16860 ft 396 kts 354°
2026-05-04 22:13 35.16337 -89.76104 17647 ft 400 kts 354°
2026-05-04 22:13 35.19076 -89.76260 18538 ft 401 kts 354°
2026-05-04 22:13 35.21905 -89.76418 19349 ft 405 kts 354°
2026-05-04 22:14 35.24729 -89.76575 20104 ft 409 kts 354°
2026-05-04 22:14 35.27555 -89.76599 20890 ft 414 kts
2026-05-04 22:14 35.30450 -89.76006 21715 ft 421 kts 11°
2026-05-04 22:14 35.33228 -89.74789 22370 ft 431 kts 20°
2026-05-04 22:15 35.35875 -89.73000 23043 ft 439 kts 26°
2026-05-04 22:15 35.38508 -89.71074 23695 ft 443 kts 26°
2026-05-04 22:15 35.41152 -89.69142 24315 ft 447 kts 26°
2026-05-04 22:15 35.43832 -89.67179 25002 ft 449 kts 26°
2026-05-04 22:16 35.46502 -89.65221 25540 ft 454 kts 26°
2026-05-04 22:16 35.49224 -89.63224 26028 ft 460 kts 26°
2026-05-04 22:16 35.52001 -89.61182 26663 ft 461 kts 26°
2026-05-04 22:16 35.54747 -89.59164 27148 ft 466 kts 25°
2026-05-04 22:17 35.57507 -89.57132 27615 ft 471 kts 26°
2026-05-04 22:17 35.60342 -89.55043 28124 ft 474 kts 26°
2026-05-04 22:17 35.63174 -89.52927 28646 ft 477 kts 26°
2026-05-04 22:17 35.66019 -89.50785 29028 ft 482 kts 26°
2026-05-04 22:18 35.68885 -89.48649 29621 ft 483 kts 26°
2026-05-04 22:18 35.71811 -89.46468 29980 ft 488 kts 26°
2026-05-04 22:18 35.74692 -89.44319 30570 ft 487 kts 26°
2026-05-04 22:18 35.77622 -89.42129 31147 ft 485 kts 25°
2026-05-04 22:19 35.80476 -89.39994 31689 ft 483 kts 25°
2026-05-04 22:19 35.83328 -89.37859 32384 ft 479 kts 24°
2026-05-04 22:19 35.86183 -89.35724 32779 ft 480 kts 24°
2026-05-04 22:19 35.89052 -89.33574 33269 ft 478 kts 24°
2026-05-04 22:20 35.91848 -89.31477 33885 ft 473 kts 24°
2026-05-04 22:20 35.94670 -89.29361 34254 ft 474 kts 24°
2026-05-04 22:20 35.97472 -89.27252 34891 ft 469 kts 23°
2026-05-04 22:20 36.00272 -89.25152 35230 ft 470 kts 23°
2026-05-04 22:21 36.03028 -89.23077 35747 ft 467 kts 22°
2026-05-04 22:21 36.05848 -89.20959 35619 ft 472 kts 22°
2026-05-04 22:21 36.08539 -89.18928 36172 ft 465 kts 22°
2026-05-04 22:21 36.11284 -89.16856 36586 ft 465 kts 22°
2026-05-04 22:22 36.14043 -89.14776 36898 ft 465 kts 22°
2026-05-04 22:22 36.16795 -89.12695 37483 ft 461 kts 21°
2026-05-04 22:22 36.19563 -89.10606 37624 ft 465 kts 21°
2026-05-04 22:22 36.22304 -89.08533 37981 ft 465 kts 21°
2026-05-04 22:23 36.25064 -89.06442 38379 ft 462 kts 21°
2026-05-04 22:23 36.27792 -89.04371 38814 ft 459 kts 21°
2026-05-04 22:23 36.30494 -89.02325 38883 ft 461 kts 21°
2026-05-04 22:24 36.35994 -88.98151 38873 ft 461 kts 21°
2026-05-04 22:24 36.41346 -88.94090 38865 ft 463 kts 21°
2026-05-04 22:25 36.46842 -88.89910 38871 ft 462 kts 21°
2026-05-04 22:25 36.52327 -88.85736 38863 ft 462 kts 22°
2026-05-04 22:26 36.57785 -88.81572 38862 ft 462 kts 22°
2026-05-04 22:26 36.63317 -88.77346 38851 ft 466 kts 22°
2026-05-04 22:27 36.68790 -88.73156 38869 ft 464 kts 22°
2026-05-04 22:27 36.74295 -88.68935 38861 ft 465 kts 22°
2026-05-04 22:28 36.79816 -88.64696 38863 ft 468 kts 22°
2026-05-04 22:28 36.85355 -88.60434 38859 ft 466 kts 22°
2026-05-04 22:29 36.90874 -88.56184 38853 ft 469 kts 23°
2026-05-04 22:29 36.96401 -88.51915 38842 ft 468 kts 23°
2026-05-04 22:30 37.01967 -88.47611 38848 ft 469 kts 23°
2026-05-04 22:30 37.07500 -88.43323 38847 ft 469 kts 23°
2026-05-04 22:31 37.13076 -88.39000 38850 ft 473 kts 24°
2026-05-04 22:31 37.18615 -88.34691 38848 ft 471 kts 24°
2026-05-04 22:32 37.24112 -88.30410 38833 ft 471 kts 24°
2026-05-04 22:32 37.29671 -88.26076 38839 ft 474 kts 25°
2026-05-04 22:33 37.35262 -88.21705 38838 ft 473 kts 25°
2026-05-04 22:33 37.40846 -88.17335 38831 ft 474 kts 25°
2026-05-04 22:34 37.46450 -88.12939 38836 ft 474 kts 25°
2026-05-04 22:34 37.52043 -88.08545 38830 ft 474 kts 25°
2026-05-04 22:35 37.57630 -88.04148 38848 ft 475 kts 25°
2026-05-04 22:35 37.63231 -87.99731 38818 ft 473 kts 26°
2026-05-04 22:36 37.68789 -87.95343 38819 ft 475 kts 26°
2026-05-04 22:36 37.74403 -87.90900 38824 ft 477 kts 26°
2026-05-04 22:37 37.80017 -87.86448 38825 ft 475 kts 26°
2026-05-04 22:37 37.85585 -87.82026 38835 ft 475 kts 26°
2026-05-04 22:38 37.91184 -87.77572 38836 ft 475 kts 26°
2026-05-04 22:38 37.96861 -87.73355 38834 ft 473 kts 24°
2026-05-04 22:39 38.02609 -87.69233 38831 ft 476 kts 24°
2026-05-04 22:39 38.08358 -87.65095 38827 ft 477 kts 24°
2026-05-04 22:40 38.14107 -87.60949 38832 ft 475 kts 24°
2026-05-04 22:40 38.19860 -87.56792 38825 ft 475 kts 24°
2026-05-04 22:41 38.25583 -87.52651 38812 ft 476 kts 24°
2026-05-04 22:41 38.31330 -87.48482 38806 ft 475 kts 24°
2026-05-04 22:42 38.37092 -87.44296 38801 ft 477 kts 24°
2026-05-04 22:42 38.42854 -87.40101 38784 ft 478 kts 24°
2026-05-04 22:43 38.48587 -87.35920 38791 ft 478 kts 24°
2026-05-04 22:43 38.54369 -87.31696 38768 ft 477 kts 25°
2026-05-04 22:44 38.60127 -87.27481 38774 ft 479 kts 25°
2026-05-04 22:44 38.65869 -87.23269 38774 ft 477 kts 25°
2026-05-04 22:45 38.71631 -87.19036 38779 ft 478 kts 25°
2026-05-04 22:45 38.80271 -87.12673 38769 ft 479 kts 25°
2026-05-04 22:46 38.86070 -87.08392 38766 ft 478 kts 25°
2026-05-04 22:46 38.91822 -87.04138 38755 ft 479 kts 26°
2026-05-04 22:47 38.97574 -86.99876 38769 ft 478 kts 26°
2026-05-04 22:47 39.03340 -86.95594 38763 ft 478 kts 26°
2026-05-04 22:48 39.09067 -86.91335 38757 ft 478 kts 26°
2026-05-04 22:48 39.14801 -86.87061 38749 ft 478 kts 26°
2026-05-04 22:49 39.20583 -86.82744 38767 ft 478 kts 26°
2026-05-04 22:49 39.26319 -86.78452 38769 ft 477 kts 26°
2026-05-04 22:50 39.32052 -86.74156 38765 ft 478 kts 25°
2026-05-04 22:50 39.37775 -86.69858 38773 ft 477 kts 25°
2026-05-04 22:51 39.43516 -86.65539 38761 ft 478 kts 25°
2026-05-04 22:51 39.49171 -86.61276 38746 ft 478 kts 25°
2026-05-04 22:52 39.54892 -86.56956 38758 ft 477 kts 26°
2026-05-04 22:52 39.60629 -86.52613 38738 ft 479 kts 25°
2026-05-04 22:53 39.66347 -86.48277 38756 ft 476 kts 25°
2026-05-04 22:53 39.72085 -86.43919 38746 ft 477 kts 26°
2026-05-04 22:54 39.77793 -86.39573 38741 ft 478 kts 25°
2026-05-04 22:54 39.83379 -86.34782 38761 ft 483 kts 33°
2026-05-04 22:55 39.88678 -86.29515 38735 ft 483 kts 33°
2026-05-04 22:55 39.94022 -86.24167 38755 ft 483 kts 33°
2026-05-04 22:56 39.99311 -86.18849 38734 ft 482 kts 33°
2026-05-04 22:56 40.04562 -86.13554 38734 ft 481 kts 33°
2026-05-04 22:57 40.09847 -86.08212 38753 ft 481 kts 33°
2026-05-04 22:57 40.15133 -86.02857 38740 ft 482 kts 33°
2026-05-04 22:58 40.20399 -85.97513 38742 ft 483 kts 34°
2026-05-04 22:58 40.25708 -85.92113 38735 ft 483 kts 34°
2026-05-04 22:59 40.31020 -85.86698 38725 ft 484 kts 34°
2026-05-04 22:59 40.36263 -85.81343 38734 ft 484 kts 34°
2026-05-04 23:00 40.41594 -85.75887 38720 ft 484 kts 33°
2026-05-04 23:00 40.46889 -85.70458 38723 ft 484 kts 34°
2026-05-04 23:01 40.52199 -85.65072 38729 ft 484 kts 33°
2026-05-04 23:01 40.57549 -85.59703 38720 ft 485 kts 33°
2026-05-04 23:02 40.62799 -85.54423 38720 ft 483 kts 33°
2026-05-04 23:02 40.68118 -85.49062 38713 ft 484 kts 33°
2026-05-04 23:03 40.73450 -85.43675 38716 ft 483 kts 33°
2026-05-04 23:03 40.78781 -85.38279 38724 ft 484 kts 33°
2026-05-04 23:04 40.84140 -85.32843 38708 ft 484 kts 33°
2026-05-04 23:04 40.89463 -85.27433 38711 ft 484 kts 33°
2026-05-04 23:05 40.94795 -85.22002 38706 ft 484 kts 33°
2026-05-04 23:05 41.00098 -85.16469 38707 ft 486 kts 35°
2026-05-04 23:06 41.05300 -85.10815 38706 ft 486 kts 35°
2026-05-04 23:06 41.10414 -85.05256 38706 ft 485 kts 35°
2026-05-04 23:07 41.15764 -84.99428 38692 ft 485 kts 35°
2026-05-04 23:07 41.20953 -84.93765 38685 ft 486 kts 35°
2026-05-04 23:08 41.26150 -84.88081 38665 ft 488 kts 35°
2026-05-04 23:08 41.31389 -84.82337 38664 ft 487 kts 35°
2026-05-04 23:09 41.36589 -84.76624 38659 ft 486 kts 35°
2026-05-04 23:09 41.41822 -84.70864 38661 ft 488 kts 35°
2026-05-04 23:10 41.47032 -84.65116 38662 ft 487 kts 35°
2026-05-04 23:10 41.52127 -84.59483 38665 ft 487 kts 35°
2026-05-04 23:11 41.57442 -84.53596 38652 ft 488 kts 35°
2026-05-04 23:11 41.62658 -84.47804 38662 ft 489 kts 35°
2026-05-04 23:12 41.67870 -84.42004 38660 ft 489 kts 35°
2026-05-04 23:12 41.73082 -84.36189 38655 ft 490 kts 35°
2026-05-04 23:13 41.78321 -84.30333 38654 ft 489 kts 36°
2026-05-04 23:13 41.83543 -84.24483 38650 ft 489 kts 36°
2026-05-04 23:14 41.88755 -84.18634 38651 ft 490 kts 36°
2026-05-04 23:14 41.93898 -84.12846 38645 ft 491 kts 36°
2026-05-04 23:15 41.99137 -84.06940 38639 ft 491 kts 36°
2026-05-04 23:15 42.04364 -84.01032 38641 ft 493 kts 36°
2026-05-04 23:16 42.09615 -83.95084 38639 ft 490 kts 36°
2026-05-04 23:16 42.14829 -83.89167 38655 ft 493 kts 36°
2026-05-04 23:17 42.20059 -83.83215 38659 ft 491 kts 36°
2026-05-04 23:17 42.25233 -83.77317 38654 ft 493 kts 36°
2026-05-04 23:18 42.30373 -83.71442 38648 ft 494 kts 35°
2026-05-04 23:18 42.35620 -83.65433 38644 ft 494 kts 36°
2026-05-04 23:19 42.40255 -83.58507 38659 ft 504 kts 53°
2026-05-04 23:19 42.43252 -83.50188 38653 ft 510 kts 65°
2026-05-04 23:20 42.45824 -83.41239 38637 ft 511 kts 66°
2026-05-04 23:20 42.48323 -83.32275 38626 ft 510 kts 67°
2026-05-04 23:21 42.50791 -83.23300 38621 ft 510 kts 67°
2026-05-04 23:21 42.53168 -83.14595 38629 ft 511 kts 67°
2026-05-04 23:22 42.55576 -83.05733 38624 ft 511 kts 68°
2026-05-04 23:22 42.58022 -82.96696 38628 ft 511 kts 68°
2026-05-04 23:23 42.60449 -82.87691 38622 ft 511 kts 67°
2026-05-04 23:23 42.62880 -82.78638 38616 ft 511 kts 68°
2026-05-04 23:24 42.65292 -82.69622 38630 ft 510 kts 67°
2026-05-04 23:24 42.67719 -82.60519 38617 ft 512 kts 67°
2026-05-04 23:25 42.70123 -82.51465 38630 ft 511 kts 67°
2026-05-04 23:25 42.72529 -82.42374 38621 ft 513 kts 67°
2026-05-04 23:26 42.74926 -82.33277 38621 ft 513 kts 68°
2026-05-04 23:26 42.77315 -82.24181 38620 ft 513 kts 68°
2026-05-04 23:27 42.79710 -82.15020 38628 ft 511 kts 68°
2026-05-04 23:27 42.82000 -82.06235 38630 ft 512 kts 68°
2026-05-04 23:28 42.84282 -81.97446 38633 ft 510 kts 68°
2026-05-04 23:28 42.86638 -81.88335 38625 ft 511 kts 68°
2026-05-04 23:29 42.88996 -81.79185 38634 ft 511 kts 68°
2026-05-04 23:29 42.91333 -81.70078 38633 ft 510 kts 68°
2026-05-04 23:30 42.93675 -81.60924 38631 ft 510 kts 68°
2026-05-04 23:30 42.95999 -81.51795 38633 ft 510 kts 68°
2026-05-04 23:31 42.98313 -81.42673 38644 ft 510 kts 68°
2026-05-04 23:31 43.00573 -81.33732 38653 ft 510 kts 69°
2026-05-04 23:32 43.02865 -81.24630 38654 ft 509 kts 69°
2026-05-04 23:32 43.05157 -81.15487 38660 ft 510 kts 69°
2026-05-04 23:33 43.07712 -81.06476 38667 ft 505 kts 61°
2026-05-04 23:33 43.10702 -80.97849 38654 ft 507 kts 62°
2026-05-04 23:34 43.13636 -80.89339 38649 ft 507 kts 62°
2026-05-04 23:34 43.16627 -80.80644 38652 ft 506 kts 62°
2026-05-04 23:35 43.19627 -80.71894 38658 ft 505 kts 62°
2026-05-04 23:35 43.22634 -80.63103 38652 ft 506 kts 61°
2026-05-04 23:36 43.25606 -80.54381 38658 ft 505 kts 61°
2026-05-04 23:36 43.28572 -80.45651 38657 ft 506 kts 61°
2026-05-04 23:37 43.31524 -80.36934 38658 ft 505 kts 61°
2026-05-04 23:37 43.34476 -80.28188 38652 ft 504 kts 62°
2026-05-04 23:38 43.37363 -80.19611 38655 ft 505 kts 62°
2026-05-04 23:38 43.39529 -80.13154 38652 ft 504 kts 62°